TimeCST,TemperatureF,Dew PointF,Humidity,Sea Level PressureIn,VisibilityMPH,Wind Direction,Wind SpeedMPH,Gust SpeedMPH,PrecipitationIn,Events,Conditions,WindDirDegrees,DateUTC
12:53 AM,41.0,33.1,73,30.40,10.0,WNW,3.5,-,N/A,,Clear,290,2012-11-16 06:53:00
1:53 AM,39.9,32.0,73,30.41,10.0,NW,3.5,-,N/A,,Clear,320,2012-11-16 07:53:00
2:53 AM,41.0,32.0,70,30.41,10.0,North,3.5,-,N/A,,Clear,10,2012-11-16 08:53:00
3:53 AM,39.9,33.1,77,30.41,10.0,North,3.5,-,N/A,,Clear,350,2012-11-16 09:53:00
4:53 AM,37.0,33.1,86,30.42,10.0,North,3.5,-,N/A,,Clear,350,2012-11-16 10:53:00
5:53 AM,37.9,33.1,83,30.43,10.0,NNE,5.8,-,N/A,,Clear,30,2012-11-16 11:53:00
6:53 AM,36.0,32.0,86,30.43,10.0,NE,4.6,-,N/A,,Clear,40,2012-11-16 12:53:00
7:53 AM,37.9,33.1,83,30.45,10.0,ENE,3.5,-,N/A,,Clear,60,2012-11-16 13:53:00
8:53 AM,41.0,35.1,79,30.46,10.0,ENE,4.6,-,N/A,,Clear,70,2012-11-16 14:53:00
9:53 AM,46.0,36.0,68,30.47,10.0,ENE,3.5,-,N/A,,Clear,60,2012-11-16 15:53:00
10:53 AM,48.9,36.0,61,30.48,10.0,Calm,Calm,-,N/A,,Clear,0,2012-11-16 16:53:00
12:53 PM,57.0,36.0,45,30.43,10.0,Calm,Calm,-,N/A,,Clear,0,2012-11-16 18:53:00
1:53 PM,57.9,35.1,42,30.40,10.0,East,8.1,-,N/A,,Clear,80,2012-11-16 19:53:00
2:53 PM,57.9,35.1,42,30.39,10.0,ESE,6.9,-,N/A,,Clear,120,2012-11-16 20:53:00
3:53 PM,57.9,34.0,41,30.39,10.0,SE,6.9,-,N/A,,Clear,140,2012-11-16 21:53:00
4:53 PM,55.0,35.1,47,30.39,10.0,SE,3.5,-,N/A,,Clear,130,2012-11-16 22:53:00
5:53 PM,53.1,35.1,50,30.38,10.0,SE,4.6,-,N/A,,Clear,130,2012-11-16 23:53:00
6:53 PM,50.0,35.1,57,30.39,10.0,ESE,4.6,-,N/A,,Clear,120,2012-11-17 00:53:00
7:53 PM,48.9,36.0,61,30.40,10.0,SE,3.5,-,N/A,,Clear,140,2012-11-17 01:53:00
8:53 PM,48.9,35.1,59,30.40,10.0,SE,4.6,-,N/A,,Clear,140,2012-11-17 02:53:00
9:53 PM,45.0,35.1,68,30.40,10.0,Calm,Calm,-,N/A,,Clear,0,2012-11-17 03:53:00
10:53 PM,44.1,34.0,68,30.40,10.0,Calm,Calm,-,N/A,,Clear,0,2012-11-17 04:53:00
11:53 PM,45.0,34.0,65,30.40,10.0,SE,5.8,-,N/A,,Clear,140,2012-11-17 05:53:00